Weather History for Quesnel, BC

Change the Weather History Date:

Sunday, November 17, 2013

  Actual Average Record
Temperature  
Mean Temperature 22 °F -  
Max Temperature 28 °F 34 °F 51 °F (2012)
Min Temperature 15 °F 23 °F 6 °F (1996)
Degree Days  
Heating Degree Days 44    
Moisture  
Dew Point 19 °F    
Average Humidity 88    
Maximum Humidity 100    
Minimum Humidity 74    
Precipitation  
Precipitation 0.00 in - - ()
Sea Level Pressure  
Sea Level Pressure 29.70 in    
Wind  
Wind Speed 4 mph ()    
Max Wind Speed 12 mph    
Max Gust Speed -    
Visibility 7.0 miles    
Events Snow    
Averages and records for this station are not official NWS values.
T = Trace of Precipitation, MM = Missing Value Source: Averaged Metar Reports

Daily Weather History Graph

Daily Weather History Graph

Search for Another Location

Airport:

Trip Planner

Search our weather history database for the weather conditions in past years. The results will help you decide how hot, cold, wet, or windy it might be!

Date:

Astronomy

Nov. 17, 2013 Rise Set
Actual Time 7:38 AM PST 4:11 PM PST
Civil Twilight 6:59 AM PST 4:50 PM PST
Nautical Twilight 6:16 AM PST 5:32 PM PST
Astronomical Twilight 5:35 AM PST 6:13 PM PST
Moon 4:32 PM PST (11/17) 7:36 AM PST (11/17)
Length of Visible Light 9h 51m
Length of Day
8h 33m
Full, 100% of the Moon is Illuminated
Nov 17
Full
Nov 25
Last Quarter
Dec 2
New
Dec 9
First Quarter
Dec 17
Full

Hourly Weather History & Observations

Time (PST) Temp. Windchill Dew Point Humidity Pressure Visibility Wind Dir Wind Speed Gust Speed Precip Events Conditions
12:00 AM 17.6 °F - 15.8 °F 93% 29.75 in 9.0 mi NNW 2.3 mph - N/A   Overcast
1:00 AM 17.6 °F - 15.8 °F 93% 29.76 in 9.0 mi Calm Calm - N/A   Overcast
2:00 AM 17.6 °F - 14.0 °F 86% 29.75 in 9.0 mi NW 2.3 mph - N/A   Overcast
3:00 AM 17.6 °F 10.7 °F 15.8 °F 93% 29.76 in 9.0 mi Variable 4.6 mph - N/A   Overcast
3:38 AM 17.6 °F 10.7 °F 14.0 °F 86% 29.75 in 9.0 mi SE 4.6 mph - N/A Snow Light Snow
4:00 AM 17.6 °F 12.3 °F 14.0 °F 86% 29.74 in 9.0 mi SE 3.5 mph - N/A Snow Light Snow
5:00 AM 15.8 °F - 14.0 °F 93% 29.74 in 9.0 mi Variable 2.3 mph - N/A Snow Light Snow
5:02 AM 17.6 °F - 14.0 °F 86% 29.74 in 9.0 mi ESE 2.3 mph - N/A   Mostly Cloudy
5:45 AM 17.6 °F 10.7 °F 14.0 °F 86% 29.73 in 9.0 mi ESE 4.6 mph - N/A Snow Light Snow
6:00 AM 17.6 °F - 14.0 °F 86% 29.72 in 9.0 mi Variable 2.3 mph - N/A Snow Light Snow
6:14 AM 17.6 °F 10.7 °F 15.8 °F 93% 29.71 in 2.5 mi SE 4.6 mph - N/A Snow Light Snow
7:00 AM 17.6 °F 10.7 °F 15.8 °F 93% 29.70 in 2.0 mi ESE 4.6 mph - N/A Snow Light Snow
8:00 AM 19.4 °F 12.8 °F 17.6 °F 93% 29.69 in 1.0 mi SSE 4.6 mph - N/A Snow Light Snow
8:27 AM 19.4 °F 10.4 °F 17.6 °F 93% 29.68 in 3.0 mi SSE 6.9 mph - N/A Snow Light Snow
9:00 AM 19.4 °F 11.5 °F 17.6 °F 93% 29.68 in 3.0 mi SSE 5.8 mph - N/A Snow Light Snow
9:01 AM 19.4 °F 10.4 °F 17.6 °F 93% 29.68 in 2.5 mi SSE 6.9 mph - N/A Snow Light Snow
9:18 AM 21.2 °F 12.6 °F 17.6 °F 86% 29.68 in 3.0 mi SSE 6.9 mph - N/A Snow Light Snow
10:00 AM 21.2 °F 10.9 °F 17.6 °F 86% 29.67 in 9.0 mi SSE 9.2 mph - N/A Snow Light Snow
10:11 AM 21.2 °F 10.9 °F 17.6 °F 86% 29.66 in 9.0 mi SE 9.2 mph - N/A   Overcast
10:35 AM 21.2 °F 9.5 °F 17.6 °F 86% 29.66 in 9.0 mi SSE 11.5 mph - N/A Snow Light Snow
10:58 AM 21.2 °F 13.6 °F 17.6 °F 86% 29.66 in 9.0 mi SSE 5.8 mph - N/A   Scattered Clouds
11:00 AM 21.2 °F 12.6 °F 17.6 °F 86% 29.66 in 9.0 mi SSE 6.9 mph - N/A   Partly Cloudy
12:00 PM 23.0 °F 14.7 °F 19.4 °F 86% 29.64 in 9.0 mi SSE 6.9 mph - N/A   Overcast
1:00 PM 24.8 °F 15.3 °F 19.4 °F 80% 29.62 in 9.0 mi SSE 9.2 mph - N/A   Overcast
2:00 PM 28.4 °F 20.4 °F 21.2 °F 74% 29.61 in 9.0 mi SE 8.1 mph - N/A   Overcast
3:00 PM 26.6 °F 19.1 °F 21.2 °F 80% 29.61 in 9.0 mi SE 6.9 mph - N/A   Mostly Cloudy
4:00 PM 28.4 °F 24.6 °F 23.0 °F 80% 29.64 in 9.0 mi WSW 3.5 mph - N/A   Overcast
4:39 PM 26.6 °F - 23.0 °F 86% 29.67 in 9.0 mi Calm Calm - N/A Snow Light Snow
4:44 PM 26.6 °F 22.6 °F 23.0 °F 86% 29.66 in 2.0 mi Variable 3.5 mph - N/A Snow Light Snow
5:00 PM 26.6 °F 18.2 °F 24.8 °F 93% 29.65 in 1.8 mi SSE 8.1 mph - N/A Snow Light Snow
5:03 PM 26.6 °F 18.2 °F 24.8 °F 93% 29.66 in 3.0 mi SSE 8.1 mph - N/A Snow Light Snow
5:25 PM 26.6 °F - 23.0 °F 86% 29.66 in 9.0 mi Variable 2.3 mph - N/A   Mostly Cloudy
6:00 PM 24.8 °F - 23.0 °F 93% 29.68 in 9.0 mi NNE 2.3 mph - N/A   Overcast
7:00 PM 24.8 °F 16.9 °F 24.8 °F 100% 29.70 in 9.0 mi NW 6.9 mph - N/A   Overcast
7:38 PM 24.8 °F 17.9 °F 23.0 °F 93% 29.72 in 9.0 mi NNW 5.8 mph - N/A Snow Light Snow
8:00 PM 26.6 °F 20.0 °F 23.0 °F 86% 29.72 in 9.0 mi NNW 5.8 mph - N/A Snow Light Snow
8:03 PM 26.6 °F 19.1 °F 23.0 °F 86% 29.72 in 9.0 mi NNW 6.9 mph - N/A   Overcast
8:51 PM 24.8 °F 16.1 °F 23.0 °F 93% 29.74 in 9.0 mi NW 8.1 mph - N/A Snow Light Snow
9:00 PM 24.8 °F 14.6 °F 23.0 °F 93% 29.74 in 9.0 mi NNW 10.4 mph - N/A Snow Light Snow
9:20 PM 24.8 °F 16.9 °F 21.2 °F 86% 29.75 in 9.0 mi NNW 6.9 mph - N/A   Overcast
9:47 PM 24.8 °F 16.1 °F 19.4 °F 80% 29.76 in 9.0 mi NNW 8.1 mph - N/A Snow Light Snow
10:00 PM 23.0 °F 15.8 °F 19.4 °F 86% 29.76 in 9.0 mi North 5.8 mph - N/A Snow Light Snow
10:49 PM 21.2 °F 11.7 °F 17.6 °F 86% 29.78 in 2.2 mi North 8.1 mph - N/A Snow Light Snow
11:00 PM 21.2 °F 12.6 °F 17.6 °F 86% 29.79 in 1.2 mi North 6.9 mph - N/A Snow Light Snow
11:11 PM 21.2 °F 12.6 °F 17.6 °F 86% 29.78 in 3.0 mi North 6.9 mph - N/A Snow Light Snow
11:31 PM 21.2 °F 14.9 °F 17.6 °F 86% 29.79 in 2.5 mi North 4.6 mph - N/A Snow Light Snow